This is the latest recevied weather packets stored in our database for station/object KD9IXX-13. If no packets are shown the sender has not sent any weather packets the latest 1 day(s).
| Time | Temp. | Humidity | Pressure | Rain* | Wind** | Luminosity | Snow |
|---|---|---|---|---|---|---|---|
| 1778012102 | 12.22° C | 49% | 1011.3 hPa | 0 mm | 1.34 m/s, 292° | 125 W/m² | - |
| 1778011802 | 12.22° C | 46% | 1011.2 hPa | 0 mm | 1.34 m/s, 296° | 115 W/m² | - |
| 1778011502 | 12.22° C | 47% | 1011 hPa | 0 mm | 0.89 m/s, 296° | 123 W/m² | - |
| 1778011201 | 12.22° C | 47% | 1011.1 hPa | 0 mm | 2.24 m/s, 319° | 122 W/m² | - |
| 1778010902 | 12.22° C | 48% | 1011.1 hPa | 0 mm | 0.89 m/s, 260° | 131 W/m² | - |
| 1778010602 | 12.22° C | 46% | 1010.9 hPa | 0 mm | 1.34 m/s, 281° | 138 W/m² | - |
| 1778010302 | 12.22° C | 46% | 1010.7 hPa | 0 mm | 1.79 m/s, 295° | 142 W/m² | - |
| 1778010002 | 12.78° C | 45% | 1011 hPa | 0 mm | 1.34 m/s, 294° | 145 W/m² | - |
| 1778009702 | 12.78° C | 47% | 1011 hPa | 0 mm | 1.79 m/s, 313° | 138 W/m² | - |
| 1778009402 | 12.78° C | 47% | 1011.1 hPa | 0 mm | 0.45 m/s, 295° | 141 W/m² | - |
| 1778009102 | 12.78° C | 45% | 1011.2 hPa | 0 mm | 1.34 m/s, 342° | 143 W/m² | - |
| 1778008802 | 12.78° C | 46% | 1011 hPa | 0 mm | 2.24 m/s, 274° | 149 W/m² | - |
| 1778008502 | 12.78° C | 49% | 1011 hPa | 0 mm | 0.89 m/s, 270° | 168 W/m² | - |
| 1778008201 | 12.78° C | 48% | 1011.1 hPa | 0 mm | 1.79 m/s, 266° | 193 W/m² | - |
| 1778007902 | 12.78° C | 48% | 1011.1 hPa | 0 mm | 1.79 m/s, 258° | 197 W/m² | - |
| 1778007602 | 12.78° C | 56% | 1011.2 hPa | 0 mm | 1.34 m/s, 291° | 191 W/m² | - |
| 1778007302 | 12.78° C | 54% | 1011.2 hPa | 0 mm | 1.34 m/s, 243° | 206 W/m² | - |
| 1778007002 | 12.78° C | 53% | 1011.2 hPa | 0 mm | 0.45 m/s, 303° | 228 W/m² | - |
| 1778006702 | 12.78° C | 52% | 1011.4 hPa | 0 mm | 2.24 m/s, 264° | 215 W/m² | - |
| 1778006402 | 12.78° C | 55% | 1011.3 hPa | 0 mm | 1.79 m/s, 311° | 235 W/m² | - |
| 1778006102 | 12.22° C | 51% | 1011.4 hPa | 0 mm | 2.24 m/s, 354° | 218 W/m² | - |
| 1778005802 | 12.78° C | 53% | 1011.1 hPa | 0 mm | 1.79 m/s, 253° | 259 W/m² | - |
| 1778005502 | 12.78° C | 55% | 1011.4 hPa | 0 mm | 0.89 m/s, 299° | 264 W/m² | - |
| 1778005202 | 12.22° C | 56% | 1011.2 hPa | 0 mm | 1.79 m/s, 295° | 246 W/m² | - |
| 1778004901 | 12.22° C | 59% | 1011.5 hPa | 0 mm | 1.79 m/s, 286° | 229 W/m² | - |
* Rain latest hour (hover to see other rain measurements)
** Current wind speed in m/s (hover to see current wind gust speed)